TimeCST,TemperatureF,Dew PointF,Humidity,Sea Level PressureIn,VisibilityMPH,Wind Direction,Wind SpeedMPH,Gust SpeedMPH,PrecipitationIn,Events,Conditions,WindDirDegrees,DateUTC
12:13 AM,26.6,17.6,69,29.67,10.0,West,21.9,34.5,N/A,,Overcast,260,2012-12-04 06:13:00
12:33 AM,26.6,17.6,69,29.67,10.0,West,18.4,31.1,N/A,,Overcast,270,2012-12-04 06:33:00
12:53 AM,24.8,17.6,74,29.69,10.0,West,18.4,31.1,N/A,,Overcast,270,2012-12-04 06:53:00
1:13 AM,24.8,15.8,69,29.69,10.0,West,19.6,27.6,N/A,,Overcast,270,2012-12-04 07:13:00
1:33 AM,24.8,15.8,69,29.70,10.0,West,17.3,25.3,N/A,,Overcast,260,2012-12-04 07:33:00
1:53 AM,23.0,15.8,74,29.72,10.0,West,17.3,26.5,N/A,,Overcast,260,2012-12-04 07:53:00
2:13 AM,21.2,14.0,74,29.74,10.0,West,20.7,27.6,N/A,,Overcast,260,2012-12-04 08:13:00
2:33 AM,21.2,12.2,68,29.75,10.0,West,18.4,25.3,N/A,,Overcast,270,2012-12-04 08:33:00
2:53 AM,21.2,14.0,74,29.76,10.0,West,10.4,28.8,N/A,,Overcast,270,2012-12-04 08:53:00
3:13 AM,21.2,12.2,68,29.77,10.0,West,15.0,27.6,N/A,Snow,Light Snow,260,2012-12-04 09:13:00
3:33 AM,19.4,12.2,74,29.78,10.0,WNW,16.1,24.2,N/A,Snow,Light Snow,290,2012-12-04 09:33:00
3:53 AM,17.6,10.4,73,29.80,10.0,West,16.1,23.0,N/A,Snow,Light Snow,270,2012-12-04 09:53:00
4:12 AM,17.6,10.4,73,29.80,10.0,West,12.7,24.2,N/A,Snow,Light Snow,280,2012-12-04 10:12:00
4:33 AM,17.6,10.4,73,29.81,10.0,West,15.0,23.0,N/A,Snow,Light Snow,270,2012-12-04 10:33:00
4:53 AM,15.8,8.6,73,29.81,7.0,West,16.1,26.5,N/A,Snow,Light Snow,280,2012-12-04 10:53:00
5:12 AM,15.8,8.6,73,29.82,10.0,West,20.7,28.8,N/A,,Overcast,280,2012-12-04 11:12:00
5:33 AM,15.8,8.6,73,29.83,10.0,West,16.1,21.9,N/A,Snow,Light Snow,270,2012-12-04 11:33:00
5:53 AM,14.0,8.6,79,29.84,7.0,West,15.0,26.5,N/A,Snow,Light Snow,280,2012-12-04 11:53:00
6:12 AM,12.2,6.8,79,29.85,10.0,West,19.6,24.2,N/A,Snow,Light Snow,270,2012-12-04 12:12:00
6:33 AM,12.2,6.8,79,29.86,10.0,West,11.5,25.3,N/A,,Scattered Clouds,280,2012-12-04 12:33:00
6:52 AM,12.2,5.0,73,29.87,10.0,West,18.4,26.5,N/A,,Clear,280,2012-12-04 12:52:00
7:13 AM,12.2,6.8,79,29.88,10.0,West,10.4,16.1,N/A,Snow,Light Snow,280,2012-12-04 13:13:00
7:33 AM,12.2,5.0,73,29.89,10.0,West,16.1,25.3,N/A,,Scattered Clouds,280,2012-12-04 13:33:00
7:52 AM,10.4,5.0,79,29.90,10.0,WNW,9.2,24.2,N/A,,Scattered Clouds,290,2012-12-04 13:52:00
8:13 AM,10.4,5.0,79,29.91,10.0,West,13.8,24.2,N/A,,Scattered Clouds,280,2012-12-04 14:13:00
8:33 AM,10.4,5.0,79,29.92,10.0,West,18.4,25.3,N/A,,Scattered Clouds,270,2012-12-04 14:33:00
8:52 AM,10.4,5.0,79,29.93,10.0,West,16.1,25.3,N/A,,Mostly Cloudy,280,2012-12-04 14:52:00
9:13 AM,10.4,5.0,79,29.94,10.0,West,13.8,23.0,N/A,Snow,Light Snow,270,2012-12-04 15:13:00
9:32 AM,12.2,5.0,73,29.95,7.0,West,12.7,27.6,N/A,Snow,Light Snow,270,2012-12-04 15:32:00
9:53 AM,12.2,5.0,73,29.96,5.0,WNW,15.0,20.7,N/A,Snow,Light Snow,290,2012-12-04 15:53:00
10:13 AM,12.2,6.8,79,29.97,5.0,West,13.8,21.9,N/A,Snow,Light Snow,280,2012-12-04 16:13:00
10:33 AM,12.2,6.8,79,29.98,4.0,WNW,13.8,20.7,N/A,Snow,Light Snow,290,2012-12-04 16:33:00
10:53 AM,12.2,6.8,79,30.00,4.0,West,13.8,23.0,N/A,Snow,Light Snow,280,2012-12-04 16:53:00
11:12 AM,12.2,6.8,79,30.01,5.0,WNW,13.8,21.9,N/A,Snow,Light Snow,290,2012-12-04 17:12:00
11:33 AM,12.2,6.8,79,30.01,5.0,West,16.1,21.9,N/A,Snow,Light Snow,270,2012-12-04 17:33:00
11:53 AM,14.0,6.8,73,30.02,5.0,WNW,10.4,20.7,N/A,Snow,Light Snow,290,2012-12-04 17:53:00
12:12 PM,14.0,6.8,73,30.03,5.0,WNW,13.8,24.2,N/A,Snow,Light Snow,290,2012-12-04 18:12:00
12:33 PM,15.8,6.8,68,30.04,7.0,West,11.5,21.9,N/A,Snow,Light Snow,280,2012-12-04 18:33:00
12:53 PM,15.8,6.8,68,30.05,5.0,West,11.5,21.9,N/A,Snow,Light Snow,280,2012-12-04 18:53:00
1:12 PM,15.8,8.6,73,30.06,7.0,WNW,9.2,24.2,N/A,Snow,Light Snow,290,2012-12-04 19:12:00
1:33 PM,15.8,8.6,73,30.07,7.0,West,16.1,20.7,N/A,Snow,Light Snow,270,2012-12-04 19:33:00
1:53 PM,17.6,8.6,68,30.08,7.0,WNW,12.7,19.6,N/A,Snow,Light Snow,300,2012-12-04 19:53:00
2:12 PM,17.6,8.6,68,30.09,10.0,WNW,13.8,21.9,N/A,Snow,Light Snow,290,2012-12-04 20:12:00
2:33 PM,17.6,8.6,68,30.11,7.0,West,13.8,23.0,N/A,Snow,Light Snow,280,2012-12-04 20:33:00
2:53 PM,17.6,10.4,73,30.12,10.0,WNW,10.4,-,N/A,Snow,Light Snow,290,2012-12-04 20:53:00
3:13 PM,17.6,8.6,68,30.13,10.0,WNW,15.0,24.2,N/A,Snow,Light Snow,290,2012-12-04 21:13:00
3:33 PM,17.6,8.6,68,30.14,10.0,WNW,6.9,18.4,N/A,Snow,Light Snow,300,2012-12-04 21:33:00
3:53 PM,17.6,8.6,68,30.15,10.0,WNW,16.1,21.9,N/A,Snow,Light Snow,300,2012-12-04 21:53:00
4:13 PM,17.6,8.6,68,30.16,10.0,WNW,8.1,16.1,N/A,,Overcast,300,2012-12-04 22:13:00
4:33 PM,17.6,10.4,73,30.16,10.0,WNW,6.9,-,N/A,,Overcast,300,2012-12-04 22:33:00
4:53 PM,17.6,10.4,73,30.17,10.0,West,8.1,-,N/A,Snow,Light Snow,280,2012-12-04 22:53:00
5:13 PM,17.6,10.4,73,30.19,10.0,West,9.2,-,N/A,,Overcast,280,2012-12-04 23:13:00
5:33 PM,17.6,10.4,73,30.21,10.0,West,8.1,-,N/A,,Overcast,280,2012-12-04 23:33:00
5:53 PM,17.6,10.4,73,30.21,10.0,WNW,9.2,-,N/A,,Overcast,290,2012-12-04 23:53:00
6:13 PM,17.6,10.4,73,30.22,10.0,West,6.9,-,N/A,,Overcast,280,2012-12-05 00:13:00
6:33 PM,17.6,10.4,73,30.22,10.0,WNW,5.8,-,N/A,,Overcast,290,2012-12-05 00:33:00
6:53 PM,17.6,10.4,73,30.23,10.0,WNW,5.8,-,N/A,Snow,Light Snow,290,2012-12-05 00:53:00
7:13 PM,17.6,10.4,73,30.24,10.0,WNW,4.6,-,N/A,,Overcast,290,2012-12-05 01:13:00
7:33 PM,17.6,10.4,73,30.25,10.0,WNW,5.8,-,N/A,Snow,Light Snow,290,2012-12-05 01:33:00
7:53 PM,17.6,12.2,79,30.26,10.0,West,5.8,-,N/A,Snow,Light Snow,280,2012-12-05 01:53:00
8:13 PM,17.6,12.2,79,30.27,10.0,WNW,4.6,-,N/A,Snow,Light Snow,290,2012-12-05 02:13:00
8:33 PM,17.6,12.2,79,30.27,7.0,WNW,5.8,-,N/A,Snow,Light Snow,300,2012-12-05 02:33:00
8:53 PM,17.6,12.2,79,30.28,10.0,WNW,6.9,-,N/A,Snow,Light Snow,300,2012-12-05 02:53:00
9:13 PM,17.6,12.2,79,30.28,10.0,WNW,5.8,-,N/A,Snow,Light Snow,300,2012-12-05 03:13:00
9:33 PM,17.6,12.2,79,30.27,10.0,WNW,3.5,-,N/A,Snow,Light Snow,300,2012-12-05 03:33:00
9:52 PM,17.6,12.2,79,30.27,10.0,Calm,Calm,-,N/A,,Overcast,0,2012-12-05 03:52:00
10:13 PM,17.6,12.2,79,30.27,10.0,Calm,Calm,-,N/A,,Overcast,0,2012-12-05 04:13:00
10:33 PM,17.6,12.2,79,30.28,10.0,Calm,Calm,-,N/A,,Overcast,0,2012-12-05 04:33:00
10:52 PM,17.6,12.2,79,30.29,10.0,Calm,Calm,-,N/A,Snow,Light Snow,0,2012-12-05 04:52:00
11:13 PM,17.6,12.2,79,30.30,10.0,North,3.5,-,N/A,Snow,Light Snow,350,2012-12-05 05:13:00
11:33 PM,17.6,10.4,73,30.31,10.0,Calm,Calm,-,N/A,,Overcast,0,2012-12-05 05:33:00
11:52 PM,17.6,10.4,73,30.32,10.0,NNW,3.5,-,N/A,,Overcast,340,2012-12-05 05:52:00